Flag for Canada Weather past 2 weeks in Arviat, Nunavut Territory, Canada

Now
-15 °F

Clear.


Feels Like: -32 °F
Forecast: -24 / 5 °F
Wind: 8 mph from Northwest

Location: Arviat Airport

Current Time: Mar 30, 2015 at 10:03:09 PM

Latest Report: Mar 30, 2015 at 9:00 PM


Visibility: 9 mi

Pressure: 30.07 "Hg

Humidity: 76%

Dew point: -20 °F

Location of ArviatLocation

Historic Weather in Arviat — Graph

°F

Arviat temperature yesterday

Maximum temperature yesterday: 0 °F (at 12:00 AM)
Minimum temperature yesterday: -17 °F (at 7:00 AM)
Average temperature yesterday: -10 °F

Past Weeks' High & Low Weather Summary

 TemperatureHumidityPressure
High19 °F (Mar 27, 3:00 PM)100% (Mar 28, 9:00 AM)30.39 "Hg (Mar 28, 9:00 AM)
Low-22 °F (Mar 24, 6:00 AM)65% (Mar 26, 1:00 PM)29.12 "Hg (Mar 15, 8:00 PM)
Average-8 °F80%29.96 "Hg
* Reported Mar 15 8:00 PM — Mar 30 8:00 PM, Arviat, Weather by CustomWeather, © 2015

Note: Actual official high and low records may vary slightly from our data, if they occured in-between our weather recording intervals... More about our weather records

Advertising

Arviat weather history for previous 24 hours

 ConditionsComfort  
Time TempWeatherWind HumidityBarometerVisibility
8:00 PM
Mon, Mar 30
-13 °FSunny.9 mph76%30.06 "Hg9 mi
7:00 PM-11 °FSunny.10 mph76%30.05 "Hg9 mi
6:00 PM-9 °FSunny.13 mph77%30.04 "Hg9 mi
5:00 PM-9 °FSunny.17 mph77%30.04 "Hg15 mi
4:00 PM-9 °FSunny.15 mph77%30.04 "Hg10 mi
3:00 PM-9 °FSunny.15 mph70%30.04 "Hg10 mi
2:00 PM-11 °FSunny.16 mph70%30.03 "Hg10 mi
1:00 PM-13 °FSunny.17 mph69%30.02 "Hg10 mi
12:00 PM-15 °FSunny.18 mph69%30.02 "Hg8 mi
11:00 AM-17 °FSunny.18 mph69%30.01 "Hg10 mi
10:00 AM-18 °FSunny.15 mph69%30.01 "Hg15 mi
9:00 AM-20 °FSunny.12 mph75%30.01 "Hg15 mi
8:00 AM-20 °FSunny.9 mph68%30.00 "Hg15 mi
7:00 AM-22 °FClear.9 mph75%30.00 "Hg15 mi
6:00 AM-20 °FClear.10 mph75%29.99 "Hg9 mi
5:00 AM-18 °FClear.12 mph75%29.98 "Hg9 mi
4:00 AM-20 °FClear.9 mph75%29.98 "Hg9 mi
3:00 AM-17 °FClear.13 mph76%29.99 "Hg9 mi
2:00 AM-17 °FPassing clouds.13 mph76%29.98 "Hg9 mi
1:00 AM-15 °FClear.12 mph76%29.98 "Hg9 mi
12:00 AM-15 °FClear.8 mph76%29.98 "Hg9 mi
11:00 PM
Sun, Mar 29
-13 °FPassing clouds.12 mph76%29.98 "Hg9 mi
10:00 PM-11 °FPassing clouds.13 mph76%29.98 "Hg9 mi
Weather by CustomWeather, © 2015

See weather overviewHow to use our weather pages